Tracking 17560 objects as of 12-February-2016
HD Live streaming from Space Station
objects crossing your sky now

COSMOS 2251 DEB

Track COSMOS 2251 DEB now!
10-day predictions


NORAD ID: 35970
Int'l Code: 1993-036AVL
Perigee: 680.7 km
Apogee: 742.6 km
Inclination: 74.0 °
Period: 98.9 minutes
Semi major axis: 7082 km
RCS: 0.0106 m2 (small)
Launch date: June 16, 1993
Source: Commonwealth of Independent States (former USSR) (CIS)
Launch site: PLESETSK MISSILE AND SPACE COMPLEX (PKMTR)

Note: This is SATELLITE DEBRIS
Your satellite tracking list
Your tracking list is empty





NASA's NSSDC Master Catalog

Two Line Element Set (TLE):
1 35970U 93036AVL 16043.02614854  .00002400  00000-0  53913-3 0  9999
2 35970  74.0423 273.1467 0043700 209.3971 150.4735 14.5651244341994
Source of the keplerian elements: AFSPC

N2YO: 689